Regional Weather Roundup
Issued by NWS

Home | Current Version | Previous Version | Text Only | Print | Product List | Glossary Off
Versions: 1 2 3 4 5 6 7 8 9 10 11 12 13 14 15 16 17 18 19 20 21 22 23 24 25 26 27 28 29 30 31 32 33 34 35 36 37 38 39 40 41 42 43 44 45 46 47 48 49 50

000
ASUS43 KMKX 050000
RWRWI

WISCONSIN REGIONAL WEATHER ROUNDUP
NATIONAL WEATHER SERVICE MILWAUKEE/SULLIVAN WI
700 PM CDT SAT JUL 04 2015

NOTE: "FAIR" INDICATES FEW OR NO CLOUDS BELOW 12,000 FEET WITH NO
SIGNIFICANT WEATHER AND/OR OBSTRUCTIONS TO VISIBILITY.

WIZ001-002-006>008-014>016-023>028-050100-
NORTHWEST WISCONSIN

CITY           SKY/WX    TMP DP  RH WIND       PRES   REMARKS
SUPERIOR ARPT  SUNNY     64  58  80 NE8       29.91F
ASHLAND        SUNNY     66  60  81 N9        29.92F
6HR MIN TEMP:  66; 6HR MAX TEMP:  76;

HAYWARD        SUNNY     80  60  50 S7        29.92F HAZE    HX  81
6HR MIN TEMP:  80; 6HR MAX TEMP:  83;

SIREN          SUNNY     81  61  49 S8        29.90F HAZE    HX  82
CUMBERLAND     MOSUNNY   79  61  53 S7        29.93S HAZE    HX  80
RICE LAKE      SUNNY     80  62  54 S6        29.94S HAZE    HX  81
CHETEK         NOT AVBL
LADYSMITH      SUNNY     80  62  53 S7        29.95S HX  81
EAU CLAIRE     NOT AVBL
MENOMONIE      SUNNY     81  64  57 S7        29.92F HAZE    HX  82
NEW RICHMOND   SUNNY     80  65  61 S9        29.91F HAZE    HX  81
OSCEOLA        SUNNY     82  65  57 S7        29.92F HX  83
$$

WIZ003>005-009-010-017-018-050100-
NORTH CENTRAL WISCONSIN

CITY           SKY/WX    TMP DP  RH WIND       PRES   REMARKS
MANITOWISH WTR PTSUNNY   76  59  55 S5        29.95S
ARBOR VITAE    PTSUNNY   77  58  51 CALM      29.96S
WOODRUFF       PTSUNNY   77  58  51 CALM      29.96S
RHINELANDER    PTSUNNY   78  58  49 S3        29.97S
6HR MIN TEMP:  78; 6HR MAX TEMP:  82;

EAGLE RIVER    PTSUNNY   75  55  50 CALM      29.96S
LAND O LAKES   PTSUNNY   77  54  44 CALM      29.97S
PHILLIPS       MOSUNNY   79  61  54 SW8       29.94S HX  80
6HR MIN TEMP:  77; 6HR MAX TEMP:  81;

TOMAHAWK       MOSUNNY   77  60  54 CALM      29.96S
MEDFORD        MOSUNNY   78  62  56 SW8       29.95F HX  80
MERRILL        MOSUNNY   80  59  49 SW6       29.95F HX  81
$$

WIZ029-030-035-036-043>047-050100-
CENTRAL WISCONSIN

CITY           SKY/WX    TMP DP  RH WIND       PRES   REMARKS
WAUSAU         MOSUNNY   80  60  50 SW6       29.93F HAZE    HX  81
6HR MIN TEMP:  78; 6HR MAX TEMP:  83;

MOSINEE        NOT AVBL
MARSHFIELD     CLOUDY    79  65  62 S6        29.95F HAZE    HX  81
6HR MIN TEMP:  78; 6HR MAX TEMP:  83;

STEVENS POINT  MOSUNNY   79  61  53 SW5       29.96S HX  80
WAUPACA        CLOUDY    81  64  55 SE5       29.95F HX  83
WAUTOMA        NOT AVBL
WISC RAPIDS    PTSUNNY   80  62  54 SW6       29.96S HX  81
6HR MIN TEMP:  79; 6HR MAX TEMP:  83;

CAMP DOUGLAS   NOT AVBL
$$

WIZ011>013-019>022-031-037>040-048>050-050100-
NORTHEAST WISCONSIN

CITY           SKY/WX    TMP DP  RH WIND       PRES   REMARKS
ANTIGO         MOSUNNY   75  64  67 S8        29.97S
SHAWANO        MOSUNNY   81  65  58 SE7       29.95S HX  82
OCONTO         MOSUNNY   74  63  69 SE7       29.96S
STURGEON BAY   SUNNY     68  57  68 S6        30.00S
6HR MIN TEMP:  68; 6HR MAX TEMP:  73;

GREEN BAY      MOSUNNY   76  64  66 SE9       29.96S
6HR MIN TEMP:  76; 6HR MAX TEMP:  83;

MANITOWOC      NOT AVBL
APPLETON       PTSUNNY   79  61  53 S7        29.96F HX  80
CLINTONVILLE   MOSUNNY   79  61  53 S6        29.94S HX  80
OSHKOSH        MOSUNNY   78  62  57 SW6       29.95F HX  80
6HR MIN TEMP:  78; 6HR MAX TEMP:  82;

$$

WIZ032>034-041-042-053>061-050100-
SOUTHWEST WISCONSIN

CITY           SKY/WX    TMP DP  RH WIND       PRES   REMARKS
LA CROSSE      SUNNY     81  64  56 S9        29.93F HX  82
6HR MIN TEMP:  81; 6HR MAX TEMP:  84;

SPARTA         SUNNY     80  61  51 W6        29.95F HX  81
VIROQUA        SUNNY     77  63  60 SW3       29.98S
BOSCOBEL       SUNNY     80  63  55 W5        29.96S HX  81
6HR MIN TEMP:  80; 6HR MAX TEMP:  84;

PRAIRIE DU CHI SUNNY     79  59  51 S3        29.96S HX  80
PLATTEVILLE    SUNNY     78  61  55 SW5       29.98F
$$

WIZ056-057-062-063-064-067-068-050100-
SOUTH CENTRAL WISCONSIN

CITY           SKY/WX    TMP DP  RH WIND       PRES   REMARKS
REEDSBURG      SUNNY     78  62  58 SW7       29.96F HX  80
BARABOO/DELLS  SUNNY     78  61  54 SW7       29.97S HX  80
LONE ROCK      NOT AVBL
MINERAL POINT  MOSUNNY   79  59  50 W3        29.99F HX  80
MADISON        MOSUNNY   79  61  53 CALM      29.97S HX  80
6HR MIN TEMP:  79; 6HR MAX TEMP:  82;

MIDDLETON      SUNNY     79  58  47 W6        29.99S HX  80
WATERTOWN      SUNNY     78  62  58 SW5       29.98S HX  80
MONROE         PTSUNNY   79  61  53 W5        29.98F HX  80
JANESVILLE     MOSUNNY   81  61  50 SW6       29.97F HX  81
$$

WIZ051-052-058>065-066-070>072-050100-
SOUTHEAST WISCONSIN

CITY           SKY/WX    TMP DP  RH WIND       PRES   REMARKS
MILWAUKEE      PTSUNNY   76  59  55 S9        29.98S
6HR MIN TEMP:  76; 6HR MAX TEMP:  80;

WAUKESHA       MOSUNNY   75  61  60 W6        29.99F
MILWAUKEE/TIMM MOSUNNY   79  57  47 SW6       29.98S HX  80
RACINE         SUNNY     73  53  49 S9        30.00S
6HR MIN TEMP:  73; 6HR MAX TEMP:  79;

BURLINGTON     MOSUNNY   75  62  65 CALM      29.99S
KENOSHA        SUNNY     76  59  55 S7        29.99S
6HR MIN TEMP:  76; 6HR MAX TEMP:  81;

FOND DU LAC    MOSUNNY   79  64  60 S6        29.96F HX  81
6HR MIN TEMP:  79; 6HR MAX TEMP:  82;

SHEBOYGAN      PTSUNNY   74  61  63 S5        29.97F
6HR MIN TEMP:  74; 6HR MAX TEMP:  82;

WEST BEND      MOSUNNY   77  59  53 SW5       29.97F
JUNEAU         SUNNY     77  62  59 S5        29.98F
$$

LSZ147-162-050100-
LAKE SUPERIOR

STATION/POSITION TIME  TEMP    WIND        PRES    WAVE
                       AIR SEA DIR/SP/G            HT/PER
                 (UTC) (F)     (DEG/KT/KT) (MB)    (FT/S)
W MID LAKE BUOY  2250   43 39   70/  8/  8 1014.5F   0
DEVILS ISLAND    2300   57      80/ 10/ 11 1013.9F
SAXON HARBOR     2300   65        CALM     1013.5
$$

LMZ867-665-643>646-050100-
LAKE MICHIGAN

STATION/POSITION TIME  TEMP    WIND        PRES    WAVE
                       AIR SEA DIR/SP/G            HT/PER
                 (UTC) (F)     (DEG/KT/KT) (MB)    (FT/S)
CHAMBERS ISLAND  2300   73     110/  4/  7 1014.9F
S GREEN BAY BUOY 2300   73 70  150/ 10/ 12 1015.9
N MID LAKE BUOY  2250   62 45  180/  4/  4 1015.2F   0
NORTHPORT PIER   2300   68     170/  4/  6 1015.2S
SISTER BAY       2314   72     160/  8/ 10   N/A
ALGOMA LAKESHORE 2241             CALM       N/A
KEWAUNEE LAKESHO 2300   62     150/  3/  6 1015.0F
SHEBOYGAN LAKESH 2300   64     160/ 10/ 12 1015.4F
PORT WASHINGTON  2300   70     200/  5/  7 1015.9F
ATWATER BUOY     2300   65 62  160/  8/ 10 1016.5F
MILWAUKEE LAKESH 2300   66     140/ 13/ 15   N/A
KENOSHA   LAKESH 2300   68     180/  7/ 10 1015.2S
$$

TC  - TEMPERATURE IN CELSIUS
VSB - VISIBILITY IN STATUTE MILES
WCI - WIND CHILL INDEX
HX  - HEAT INDEX




USA.gov is the U.S. government's official web portal to all federal, state and local government web resources and services.